Home > Time Zones > World Clock > Weather > Egypt > Cairo > Past weeks

Flag for Egypt Weather past 2 weeks in Cairo, Egypt

Now
54 °F

Clear.


Feels Like: 53 °F
Forecast: 50 / 73 °F
Wind: 3 mph from East

Location: Cairo Airport

Current Time: Mar 1, 2015 at 3:29:07 AM

Latest Report: Mar 1, 2015 at 3:00 AM


Visibility: 10 mi

Pressure: 30.09 "Hg

Humidity: 82%

Dew point: 48 °F

Location of CairoLocation

Historic Weather in Cairo — Graph

°F

Cairo temperature yesterday

Maximum temperature yesterday: 70 °F (at 2:00 PM)
Minimum temperature yesterday: 55 °F (at 5:00 AM)
Average temperature yesterday: 63 °F

Past Weeks' High & Low Weather Summary

 TemperatureHumidityPressure
High84 °F (Feb 27, 3:30 PM)100% (Feb 16, 2:30 AM)30.18 "Hg (Feb 16, 2:30 AM)
Low43 °F (Feb 20, 2:30 AM)11% (Feb 27, 5:00 PM)29.77 "Hg (Feb 24, 3:30 AM)
Average58 °F57%30.02 "Hg
* Reported Feb 14 2:00 AM — Mar 1 2:00 AM, Cairo, Weather by CustomWeather, © 2015

Note: Actual official high and low records may vary slightly from our data, if they occured in-between our weather recording intervals... More about our weather records

Advertising

Cairo weather history for previous 24 hours

 ConditionsComfort  
Time TempWeatherWind HumidityBarometerVisibility
2:00 AM
Sun, Mar 1
55 °FClear.No wind77%30.12 "Hg10 mi
1:30 AM55 °FClear.5 mph77%30.12 "Hg10 mi
1:00 AM57 °FClear.5 mph77%30.12 "Hg10 mi
12:30 AM57 °FClear.5 mph77%30.15 "Hg10 mi
12:00 AM57 °FClear.5 mph77%30.15 "Hg10 mi
11:30 PM
Sat, Feb 28
59 °FClear.6 mph68%30.15 "Hg10 mi
11:00 PM59 °FClear.6 mph68%30.15 "Hg10 mi
10:30 PM59 °FClear.6 mph68%30.15 "Hg10 mi
10:00 PM61 °FClear.8 mph59%30.12 "Hg10 mi
9:30 PM63 °FClear.3 mph34%30.12 "Hg10 mi
9:00 PM63 °FClear.3 mph34%30.12 "Hg10 mi
8:30 PM64 °FClear.3 mph32%30.09 "Hg10 mi
8:00 PM64 °FClear.3 mph32%30.09 "Hg10 mi
7:30 PM66 °FClear.2 mph30%30.09 "Hg10 mi
7:00 PM66 °FClear.2 mph30%30.09 "Hg10 mi
6:30 PM66 °FClear.3 mph30%30.07 "Hg10 mi
6:00 PM66 °FClear.3 mph28%30.07 "Hg10 mi
5:30 PM68 °FSunny.3 mph24%30.07 "Hg10 mi
5:00 PM68 °FSunny.2 mph24%30.07 "Hg10 mi
4:30 PM70 °FSunny.3 mph23%30.07 "Hg10 mi
4:00 PM70 °FSunny.3 mph23%30.07 "Hg10 mi
3:30 PM70 °FSunny.6 mph25%30.07 "Hg10 mi
3:00 PM70 °FSunny.No wind27%30.07 "Hg10 mi
2:30 PM70 °FSunny.5 mph27%30.07 "Hg10 mi
2:00 PM70 °FSunny.No wind29%30.09 "Hg10 mi
1:30 PM68 °FSunny.2 mph30%30.09 "Hg10 mi
1:00 PM68 °FSunny.No wind28%30.09 "Hg10 mi
12:30 PM68 °FSunny.5 mph30%30.09 "Hg10 mi
12:00 PM68 °FSunny.No wind35%30.12 "Hg10 mi
11:30 AM66 °FSunny.3 mph32%30.12 "Hg10 mi
11:00 AM66 °FSunny.5 mph35%30.15 "Hg10 mi
10:30 AM64 °FSunny.2 mph40%30.15 "Hg10 mi
10:00 AM64 °FSunny.3 mph37%30.15 "Hg10 mi
9:30 AM63 °FSunny.3 mph39%30.15 "Hg10 mi
9:00 AM61 °FSunny.3 mph42%30.15 "Hg10 mi
8:30 AM59 °FSunny.5 mph51%30.15 "Hg10 mi
8:00 AM59 °FSunny.No wind51%30.12 "Hg10 mi
7:30 AM57 °FSunny.No wind55%30.12 "Hg10 mi
7:00 AM55 °FSunny.No wind59%30.12 "Hg10 mi
6:30 AM55 °FSunny.No wind59%30.12 "Hg10 mi
6:00 AM55 °FClear.No wind59%30.09 "Hg10 mi
5:30 AM55 °FClear.No wind59%30.09 "Hg10 mi
5:00 AM55 °FClear.No wind55%30.09 "Hg10 mi
4:30 AM57 °FClear.No wind55%30.07 "Hg10 mi
4:00 AM59 °FClear.No wind51%30.07 "Hg10 mi
3:30 AM59 °FClear.No wind51%30.07 "Hg10 mi
3:00 AM59 °FClear.1 mph51%30.07 "Hg10 mi
Weather by CustomWeather, © 2015

See weather overviewHow to use our weather pages